Terug naar catalogus

STARLINK-3908

ActiefCommunicatieVLEO
NORAD 52491·PAYLOAD·🇺🇸 United States

Gelanceerd May 6, 2022 vanaf Cape Canaveral Space Force Station

Loading…

Volgende Passages (komende 24 uur)

TLE

VersSource: CelesTrak SupGP

Epoch: Sep 14, 2026, 21:34 UTC

1 52491C 22049AS  26257.89909722  .00045955  00000+0  14781-2 0  2573
2 52491  53.1595 275.9302 0001227  60.9454 208.5463 15.31671779    15

Volg STARLINK-3908 in realtime met AllMySat

Download on the App Store